Time,TemperatureF,DewpointF,PressureIn,WindDirection,WindDirectionDegrees,WindSpeedMPH,WindSpeedGustMPH,Humidity,HourlyPrecipIn,Conditions,Clouds,dailyrainin,SoftwareType,DateUTC
2013-02-26 00:00:00,72.8,69.0,29.71,SE,139,5.0,5.0,88,0.00,,,0.00,Wunderground v.1.15,2013-02-26 05:00:00,
2013-02-26 00:05:00,72.8,69.0,29.71,South,169,6.0,6.0,88,0.00,,,0.00,Wunderground v.1.15,2013-02-26 05:05:00,
2013-02-26 00:10:00,72.8,69.0,29.71,SSE,161,6.0,6.0,88,0.00,,,0.00,Wunderground v.1.15,2013-02-26 05:10:00,
2013-02-26 00:15:00,72.8,69.4,29.70,SE,138,6.0,6.0,89,0.00,,,0.00,Wunderground v.1.15,2013-02-26 05:15:00,
2013-02-26 00:20:00,72.8,69.4,29.70,SE,137,5.0,5.0,89,0.00,,,0.00,Wunderground v.1.15,2013-02-26 05:20:00,
2013-02-26 00:30:00,72.7,69.3,29.70,South,171,5.0,5.0,89,0.00,,,0.00,Wunderground v.1.15,2013-02-26 05:30:00,
2013-02-26 00:35:00,72.7,69.3,29.70,SE,138,5.0,9.0,89,0.00,,,0.00,Wunderground v.1.15,2013-02-26 05:35:00,
2013-02-26 00:45:00,72.7,69.3,29.69,SE,138,5.0,11.0,89,0.00,,,0.00,Wunderground v.1.15,2013-02-26 05:45:00,
2013-02-26 00:50:00,72.5,69.4,29.69,South,179,4.0,9.0,90,0.00,,,0.00,Wunderground v.1.15,2013-02-26 05:50:00,
2013-02-26 00:55:00,72.5,69.4,29.69,SSE,156,4.0,9.0,90,0.00,,,0.00,Wunderground v.1.15,2013-02-26 05:55:00,
2013-02-26 01:05:00,72.5,69.4,29.69,SE,127,4.0,19.0,90,0.00,,,0.00,Wunderground v.1.15,2013-02-26 06:05:00,
2013-02-26 01:15:00,72.3,69.2,29.69,SSE,168,4.0,19.0,90,0.00,,,0.00,Wunderground v.1.15,2013-02-26 06:15:00,
2013-02-26 01:20:00,72.3,69.5,29.69,SSE,155,3.0,19.0,91,0.00,,,0.00,Wunderground v.1.15,2013-02-26 06:20:00,
2013-02-26 01:30:00,72.3,69.5,29.69,SE,136,4.0,4.0,91,0.00,,,0.00,Wunderground v.1.15,2013-02-26 06:30:00,
2013-02-26 01:35:00,72.1,69.3,29.69,SE,141,2.0,19.0,91,0.00,,,0.00,Wunderground v.1.15,2013-02-26 06:35:00,
2013-02-26 01:45:00,72.1,69.3,29.68,ESE,122,2.0,19.0,91,0.00,,,0.00,Wunderground v.1.15,2013-02-26 06:45:00,
2013-02-26 01:50:00,72.3,69.5,29.68,SSE,162,4.0,19.0,91,0.00,,,0.00,Wunderground v.1.15,2013-02-26 06:50:00,
2013-02-26 02:00:00,72.3,69.5,29.68,SSE,148,3.0,3.0,91,0.00,,,0.00,Wunderground v.1.15,2013-02-26 07:00:00,
2013-02-26 02:05:00,72.5,69.7,29.68,ESE,120,4.0,4.0,91,0.00,,,0.00,Wunderground v.1.15,2013-02-26 07:05:00,
2013-02-26 02:10:00,72.5,69.7,29.68,SE,129,3.0,19.0,91,0.00,,,0.00,Wunderground v.1.15,2013-02-26 07:10:00,
2013-02-26 02:20:00,72.7,69.9,29.68,SE,130,5.0,5.0,91,0.00,,,0.00,Wunderground v.1.15,2013-02-26 07:20:00,
2013-02-26 02:25:00,72.7,69.9,29.68,SE,130,5.0,6.0,91,0.00,,,0.00,Wunderground v.1.15,2013-02-26 07:25:00,
2013-02-26 02:35:00,72.8,70.0,29.67,East,89,6.0,19.0,91,0.00,,,0.00,Wunderground v.1.15,2013-02-26 07:35:00,
2013-02-26 02:45:00,72.8,70.0,29.66,South,181,5.0,19.0,91,0.00,,,0.00,Wunderground v.1.15,2013-02-26 07:45:00,
2013-02-26 02:50:00,72.8,70.0,29.66,SE,135,4.0,4.0,91,0.00,,,0.00,Wunderground v.1.15,2013-02-26 07:50:00,
2013-02-26 02:55:00,72.8,70.0,29.66,ESE,117,3.0,9.0,91,0.00,,,0.00,Wunderground v.1.15,2013-02-26 07:55:00,
2013-02-26 03:05:00,72.7,69.9,29.66,ESE,123,3.0,19.0,91,0.00,,,0.00,Wunderground v.1.15,2013-02-26 08:05:00,
2013-02-26 03:15:00,72.7,69.9,29.66,ESE,120,5.0,12.0,91,0.00,,,0.00,Wunderground v.1.15,2013-02-26 08:15:00,
2013-02-26 03:20:00,72.7,69.9,29.66,SE,132,6.0,6.0,91,0.00,,,0.00,Wunderground v.1.15,2013-02-26 08:20:00,
2013-02-26 03:25:00,72.5,69.7,29.66,East,100,5.0,6.0,91,0.00,,,0.00,Wunderground v.1.15,2013-02-26 08:25:00,
2013-02-26 03:35:00,72.5,69.7,29.65,ESE,106,4.0,11.0,91,0.00,,,0.00,Wunderground v.1.15,2013-02-26 08:35:00,
2013-02-26 03:45:00,72.7,68.9,29.64,ESE,114,8.0,16.0,88,0.00,,,0.00,Wunderground v.1.15,2013-02-26 08:45:00,
2013-02-26 03:50:00,73.2,67.4,29.64,SE,139,12.0,12.0,82,0.00,,,0.00,Wunderground v.1.15,2013-02-26 08:50:00,
2013-02-26 04:00:00,74.7,66.6,29.64,SE,129,15.0,15.0,76,0.00,,,0.00,Wunderground v.1.15,2013-02-26 09:00:00,
2013-02-26 04:05:00,75.1,67.0,29.64,SE,129,14.0,21.0,76,0.00,,,0.00,Wunderground v.1.15,2013-02-26 09:05:00,
2013-02-26 04:15:00,75.3,67.6,29.63,SSE,160,17.0,29.0,77,0.00,,,0.00,Wunderground v.1.15,2013-02-26 09:15:00,
2013-02-26 04:20:00,75.4,68.1,29.63,SSE,158,17.0,26.0,78,0.00,,,0.00,Wunderground v.1.15,2013-02-26 09:20:00,
2013-02-26 04:30:00,75.4,68.8,29.64,South,169,18.0,27.0,80,0.00,,,0.00,Wunderground v.1.15,2013-02-26 09:30:00,
2013-02-26 04:35:00,75.6,69.0,29.64,SSE,150,18.0,27.0,80,0.00,,,0.00,Wunderground v.1.15,2013-02-26 09:35:00,
2013-02-26 04:45:00,75.8,69.6,29.64,SE,129,16.0,22.0,81,0.00,,,0.00,Wunderground v.1.15,2013-02-26 09:45:00,
2013-02-26 04:50:00,75.8,69.6,29.64,South,177,15.0,15.0,81,0.00,,,0.00,Wunderground v.1.15,2013-02-26 09:50:00,
2013-02-26 05:00:00,76.0,69.7,29.65,South,184,13.0,13.0,81,0.00,,,0.00,Wunderground v.1.15,2013-02-26 10:00:00,
2013-02-26 05:05:00,76.1,69.8,29.65,SSE,160,18.0,18.0,81,0.00,,,0.00,Wunderground v.1.15,2013-02-26 10:05:00,
2013-02-26 05:15:00,76.0,69.7,29.66,South,172,21.0,27.0,81,0.00,,,0.00,Wunderground v.1.15,2013-02-26 10:15:00,
2013-02-26 05:20:00,75.8,69.9,29.66,South,189,22.0,22.0,82,0.00,,,0.00,Wunderground v.1.15,2013-02-26 10:20:00,
2013-02-26 05:30:00,75.8,71.7,29.66,South,181,19.0,19.0,87,0.00,,,0.00,Wunderground v.1.15,2013-02-26 10:30:00,
2013-02-26 05:35:00,75.6,70.4,29.66,South,191,19.0,19.0,84,0.00,,,0.00,Wunderground v.1.15,2013-02-26 10:35:00,
2013-02-26 05:45:00,75.3,70.1,29.66,South,174,20.0,32.0,84,0.00,,,0.00,Wunderground v.1.15,2013-02-26 10:45:00,
2013-02-26 05:50:00,75.1,70.3,29.66,SSE,158,20.0,20.0,85,0.00,,,0.00,Wunderground v.1.15,2013-02-26 10:50:00,
2013-02-26 06:00:00,74.9,70.4,29.66,South,179,17.0,17.0,86,0.00,,,0.00,Wunderground v.1.15,2013-02-26 11:00:00,
2013-02-26 06:05:00,74.9,70.4,29.66,South,176,17.0,26.0,86,0.00,,,0.00,Wunderground v.1.15,2013-02-26 11:05:00,
2013-02-26 06:15:00,74.9,70.4,29.66,South,186,18.0,18.0,86,0.00,,,0.00,Wunderground v.1.15,2013-02-26 11:15:00,
2013-02-26 06:20:00,74.7,70.6,29.66,South,186,18.0,22.0,87,0.00,,,0.00,Wunderground v.1.15,2013-02-26 11:20:00,
2013-02-26 06:30:00,74.7,70.6,29.67,South,187,16.0,16.0,87,0.00,,,0.00,Wunderground v.1.15,2013-02-26 11:30:00,
2013-02-26 06:40:00,74.7,70.6,29.67,SSE,165,18.0,19.0,87,0.00,,,0.00,Wunderground v.1.15,2013-02-26 11:40:00,
2013-02-26 06:45:00,74.7,70.9,29.68,SSE,166,18.0,26.0,88,0.00,,,0.00,Wunderground v.1.15,2013-02-26 11:45:00,
2013-02-26 06:50:00,74.7,70.9,29.68,South,188,19.0,29.0,88,0.00,,,0.00,Wunderground v.1.15,2013-02-26 11:50:00,
2013-02-26 07:00:00,74.6,70.8,29.68,SSW,192,19.0,19.0,88,0.00,,,0.00,Wunderground v.1.15,2013-02-26 12:00:00,
2013-02-26 07:10:00,74.6,70.8,29.68,SSW,192,22.0,22.0,88,0.00,,,0.00,Wunderground v.1.15,2013-02-26 12:10:00,
2013-02-26 07:15:00,74.6,70.8,29.67,South,183,19.0,36.0,88,0.00,,,0.00,Wunderground v.1.15,2013-02-26 12:15:00,
2013-02-26 07:25:00,74.6,70.8,29.67,South,191,16.0,31.0,88,0.00,,,0.00,Wunderground v.1.15,2013-02-26 12:25:00,
2013-02-26 07:30:00,74.6,70.8,29.67,SSW,210,21.0,21.0,88,0.00,,,0.00,Wunderground v.1.15,2013-02-26 12:30:00,
2013-02-26 07:40:00,74.7,71.2,29.67,SSW,193,20.0,36.0,89,0.00,,,0.00,Wunderground v.1.15,2013-02-26 12:40:00,
2013-02-26 07:45:00,74.7,71.2,29.68,South,170,20.0,36.0,89,0.00,,,0.00,Wunderground v.1.15,2013-02-26 12:45:00,
2013-02-26 07:55:00,74.9,71.1,29.68,South,180,19.0,36.0,88,0.00,,,0.00,Wunderground v.1.15,2013-02-26 12:55:00,
2013-02-26 08:05:00,75.3,71.5,29.68,SE,135,25.0,46.0,88,0.00,,,0.00,Wunderground v.1.15,2013-02-26 13:05:00,
2013-02-26 08:10:00,75.3,71.5,29.68,South,180,24.0,24.0,88,0.00,,,0.00,Wunderground v.1.15,2013-02-26 13:10:00,
2013-02-26 08:20:00,75.6,71.5,29.68,South,169,21.0,36.0,87,0.00,,,0.00,Wunderground v.1.15,2013-02-26 13:20:00,
2013-02-26 08:25:00,75.6,71.5,29.68,SE,146,23.0,36.0,87,0.00,,,0.00,Wunderground v.1.15,2013-02-26 13:25:00,
2013-02-26 08:35:00,75.8,71.3,29.68,South,179,25.0,36.0,86,0.00,,,0.00,Wunderground v.1.15,2013-02-26 13:35:00,
2013-02-26 08:40:00,75.8,71.3,29.68,South,176,25.0,25.0,86,0.00,,,0.00,Wunderground v.1.15,2013-02-26 13:40:00,
2013-02-26 08:50:00,76.1,71.3,29.68,South,186,23.0,23.0,85,0.00,,,0.00,Wunderground v.1.15,2013-02-26 13:50:00,
2013-02-26 08:55:00,76.1,70.9,29.68,SSE,166,23.0,36.0,84,0.00,,,0.00,Wunderground v.1.15,2013-02-26 13:55:00,
2013-02-26 09:05:00,76.3,71.8,29.69,SSE,160,22.0,36.0,86,0.00,,,0.00,Wunderground v.1.15,2013-02-26 14:05:00,
2013-02-26 09:15:00,76.3,71.1,29.69,South,169,24.0,24.0,84,0.00,,,0.00,Wunderground v.1.15,2013-02-26 14:15:00,
2013-02-26 09:20:00,76.1,70.9,29.69,SSE,150,22.0,30.0,84,0.00,,,0.00,Wunderground v.1.15,2013-02-26 14:20:00,
2013-02-26 09:30:00,76.0,71.2,29.71,SW,216,23.0,23.0,85,0.00,,,0.00,Wunderground v.1.15,2013-02-26 14:30:00,
2013-02-26 09:35:00,75.8,71.3,29.71,SSE,166,21.0,30.0,86,0.00,,,0.00,Wunderground v.1.15,2013-02-26 14:35:00,
2013-02-26 09:45:00,75.6,71.5,29.73,South,181,21.0,24.0,87,0.00,,,0.00,Wunderground v.1.15,2013-02-26 14:45:00,
2013-02-26 09:55:00,75.4,71.3,29.73,SSE,163,18.0,32.0,87,0.00,,,0.00,Wunderground v.1.15,2013-02-26 14:55:00,
2013-02-26 10:00:00,75.3,71.2,29.74,South,184,19.0,31.0,87,0.00,,,0.00,Wunderground v.1.15,2013-02-26 15:00:00,
2013-02-26 10:05:00,75.3,71.5,29.74,SSW,210,22.0,32.0,88,0.00,,,0.00,Wunderground v.1.15,2013-02-26 15:05:00,
2013-02-26 10:15:00,75.1,71.3,29.74,South,169,22.0,43.0,88,0.00,,,0.00,Wunderground v.1.15,2013-02-26 15:15:00,
2013-02-26 10:25:00,74.6,71.1,29.74,South,184,21.0,43.0,89,0.00,,,0.00,Wunderground v.1.15,2013-02-26 15:25:00,
2013-02-26 10:30:00,74.6,71.1,29.74,South,176,19.0,43.0,89,0.00,,,0.00,Wunderground v.1.15,2013-02-26 15:30:00,
2013-02-26 10:40:00,74.4,71.3,29.74,SSE,158,23.0,23.0,90,0.00,,,0.00,Wunderground v.1.15,2013-02-26 15:40:00,
2013-02-26 10:50:00,74.0,71.2,29.74,South,174,21.0,43.0,91,0.00,,,0.00,Wunderground v.1.15,2013-02-26 15:50:00,
2013-02-26 10:55:00,73.9,71.4,29.74,SSW,192,22.0,43.0,92,0.00,,,0.01,Wunderground v.1.15,2013-02-26 15:55:00,
2013-02-26 11:05:00,73.7,71.5,29.74,South,170,20.0,43.0,93,0.09,,,0.03,Wunderground v.1.15,2013-02-26 16:05:00,
2013-02-26 11:15:00,73.5,71.7,29.75,South,179,20.0,43.0,94,0.08,,,0.04,Wunderground v.1.15,2013-02-26 16:15:00,
2013-02-26 11:20:00,73.5,71.7,29.75,SSE,161,22.0,22.0,94,0.05,,,0.04,Wunderground v.1.15,2013-02-26 16:20:00,
2013-02-26 11:30:00,73.5,71.7,29.74,SSE,158,17.0,17.0,94,0.12,,,0.06,Wunderground v.1.15,2013-02-26 16:30:00,
2013-02-26 11:40:00,71.8,69.0,29.74,WSW,248,20.0,43.0,91,1.78,,,0.14,Wunderground v.1.15,2013-02-26 16:40:00,
2013-02-26 11:45:00,69.6,67.8,29.76,WNW,292,24.0,43.0,94,0.15,,,0.16,Wunderground v.1.15,2013-02-26 16:45:00,
2013-02-26 11:55:00,67.3,65.5,29.76,West,262,16.0,43.0,94,0.06,,,0.17,Wunderground v.1.15,2013-02-26 16:55:00,
2013-02-26 12:05:00,66.9,65.4,29.76,WSW,255,12.0,43.0,95,0.04,,,0.18,Wunderground v.1.15,2013-02-26 17:05:00,
2013-02-26 12:10:00,66.8,65.3,29.76,West,271,11.0,16.0,95,0.04,,,0.18,Wunderground v.1.15,2013-02-26 17:10:00,
2013-02-26 12:20:00,66.9,65.7,29.75,West,264,7.0,7.0,96,0.00,,,0.18,Wunderground v.1.15,2013-02-26 17:20:00,
2013-02-26 12:30:00,66.9,65.4,29.75,WSW,254,9.0,14.0,95,0.00,,,0.18,Wunderground v.1.15,2013-02-26 17:30:00,
2013-02-26 12:40:00,66.9,65.4,29.75,West,275,10.0,10.0,95,0.00,,,0.19,Wunderground v.1.15,2013-02-26 17:40:00,
2013-02-26 12:45:00,67.1,65.9,29.74,West,270,9.0,10.0,96,0.06,,,0.20,Wunderground v.1.15,2013-02-26 17:45:00,
2013-02-26 12:55:00,67.1,65.9,29.74,WNW,284,8.0,11.0,96,0.08,,,0.21,Wunderground v.1.15,2013-02-26 17:55:00,
2013-02-26 13:00:00,67.4,66.2,29.75,NW,321,8.0,8.0,96,0.07,,,0.21,Wunderground v.1.15,2013-02-26 18:00:00,
2013-02-26 13:10:00,67.6,66.7,29.75,West,274,4.0,24.0,97,0.00,,,0.21,Wunderground v.1.15,2013-02-26 18:10:00,
2013-02-26 13:20:00,67.3,66.4,29.73,South,191,3.0,3.0,97,0.18,,,0.24,Wunderground v.1.15,2013-02-26 18:20:00,
2013-02-26 13:25:00,67.6,66.7,29.73,South,191,1.0,24.0,97,0.08,,,0.24,Wunderground v.1.15,2013-02-26 18:25:00,
2013-02-26 13:35:00,68.4,67.5,29.71,SSE,157,6.0,17.0,97,0.07,,,0.25,Wunderground v.1.15,2013-02-26 18:35:00,
2013-02-26 13:45:00,69.1,68.5,29.70,SSE,167,9.0,24.0,98,0.00,,,0.25,Wunderground v.1.15,2013-02-26 18:45:00,
2013-02-26 13:50:00,69.4,68.8,29.70,SSE,155,7.0,24.0,98,0.00,,,0.25,Wunderground v.1.15,2013-02-26 18:50:00,
2013-02-26 14:00:00,69.8,69.2,29.70,SSE,148,8.0,24.0,98,0.00,,,0.25,Wunderground v.1.15,2013-02-26 19:00:00,
2013-02-26 14:10:00,70.1,69.5,29.70,South,189,8.0,8.0,98,0.00,,,0.25,Wunderground v.1.15,2013-02-26 19:10:00,
2013-02-26 14:15:00,70.3,69.7,29.70,South,175,8.0,24.0,98,0.00,,,0.25,Wunderground v.1.15,2013-02-26 19:15:00,
2013-02-26 14:25:00,70.8,69.9,29.70,SSW,205,11.0,16.0,97,0.00,,,0.25,Wunderground v.1.15,2013-02-26 19:25:00,
2013-02-26 14:35:00,71.8,70.6,29.71,South,175,14.0,14.0,96,0.00,,,0.25,Wunderground v.1.15,2013-02-26 19:35:00,
2013-02-26 14:40:00,71.8,70.0,29.71,South,170,13.0,24.0,94,0.00,,,0.25,Wunderground v.1.15,2013-02-26 19:40:00,
2013-02-26 14:50:00,72.1,69.6,29.71,SW,235,15.0,15.0,92,0.00,,,0.25,Wunderground v.1.15,2013-02-26 19:50:00,
2013-02-26 14:55:00,72.0,68.2,29.71,WSW,245,14.0,24.0,88,0.00,,,0.25,Wunderground v.1.15,2013-02-26 19:55:00,
2013-02-26 15:05:00,72.1,67.3,29.71,SW,228,16.0,24.0,85,0.00,,,0.25,Wunderground v.1.15,2013-02-26 20:05:00,
2013-02-26 15:15:00,71.8,65.7,29.71,WSW,256,14.0,19.0,81,0.00,,,0.25,Wunderground v.1.15,2013-02-26 20:15:00,
2013-02-26 15:25:00,72.1,65.9,29.71,West,268,13.0,19.0,81,0.00,,,0.25,Wunderground v.1.15,2013-02-26 20:25:00,
2013-02-26 15:30:00,72.5,66.3,29.71,West,281,11.0,11.0,81,0.00,,,0.25,Wunderground v.1.15,2013-02-26 20:30:00,
2013-02-26 15:40:00,72.5,66.7,29.71,SW,235,11.0,11.0,82,0.00,,,0.25,Wunderground v.1.15,2013-02-26 20:40:00,
2013-02-26 15:50:00,72.0,65.5,29.72,West,274,12.0,17.0,80,0.00,,,0.25,Wunderground v.1.15,2013-02-26 20:50:00,
2013-02-26 15:55:00,72.1,65.6,29.72,SW,222,13.0,17.0,80,0.00,,,0.25,Wunderground v.1.15,2013-02-26 20:55:00,
2013-02-26 16:05:00,72.1,65.2,29.72,West,274,12.0,30.0,79,0.00,,,0.25,Wunderground v.1.15,2013-02-26 21:05:00,
2013-02-26 16:15:00,72.0,65.1,29.72,West,268,12.0,13.0,79,0.00,,,0.25,Wunderground v.1.15,2013-02-26 21:15:00,
2013-02-26 16:20:00,71.8,64.9,29.72,WSW,255,14.0,30.0,79,0.00,,,0.25,Wunderground v.1.15,2013-02-26 21:20:00,
2013-02-26 16:30:00,72.3,65.8,29.73,SW,229,12.0,12.0,80,0.00,,,0.25,Wunderground v.1.15,2013-02-26 21:30:00,
2013-02-26 16:40:00,72.3,65.4,29.73,West,271,9.0,30.0,79,0.00,,,0.25,Wunderground v.1.15,2013-02-26 21:40:00,
2013-02-26 16:45:00,72.5,65.2,29.73,West,262,10.0,30.0,78,0.00,,,0.25,Wunderground v.1.15,2013-02-26 21:45:00,
2013-02-26 16:55:00,72.7,64.7,29.73,West,272,13.0,17.0,76,0.00,,,0.25,Wunderground v.1.15,2013-02-26 21:55:00,
2013-02-26 17:05:00,72.7,63.9,29.73,West,277,13.0,30.0,74,0.00,,,0.25,Wunderground v.1.15,2013-02-26 22:05:00,
2013-02-26 17:15:00,72.7,63.9,29.73,West,269,14.0,30.0,74,0.00,,,0.25,Wunderground v.1.15,2013-02-26 22:15:00,
2013-02-26 17:20:00,72.7,63.9,29.73,WSW,257,11.0,30.0,74,0.00,,,0.25,Wunderground v.1.15,2013-02-26 22:20:00,
2013-02-26 17:30:00,72.0,63.6,29.73,West,264,14.0,14.0,75,0.00,,,0.25,Wunderground v.1.15,2013-02-26 22:30:00,
2013-02-26 17:40:00,71.6,63.6,29.73,West,265,10.0,10.0,76,0.00,,,0.25,Wunderground v.1.15,2013-02-26 22:40:00,
2013-02-26 17:50:00,70.9,63.7,29.74,WSW,251,11.0,11.0,78,0.00,,,0.25,Wunderground v.1.15,2013-02-26 22:50:00,
2013-02-26 18:00:00,70.8,64.0,29.74,SW,223,8.0,8.0,79,0.00,,,0.25,Wunderground v.1.15,2013-02-26 23:00:00,
2013-02-26 18:05:00,70.8,64.0,29.74,SW,235,5.0,30.0,79,0.00,,,0.25,Wunderground v.1.15,2013-02-26 23:05:00,
2013-02-26 18:15:00,70.4,63.6,29.74,WSW,249,7.0,9.0,79,0.00,,,0.25,Wunderground v.1.15,2013-02-26 23:15:00,
2013-02-26 18:20:00,70.1,63.6,29.74,WSW,254,8.0,8.0,80,0.00,,,0.25,Wunderground v.1.15,2013-02-26 23:20:00,
2013-02-26 18:30:00,69.8,63.7,29.75,WSW,240,4.0,4.0,81,0.00,,,0.25,Wunderground v.1.15,2013-02-26 23:30:00,
2013-02-26 18:40:00,69.6,63.9,29.75,SW,232,1.0,1.0,82,0.00,,,0.25,Wunderground v.1.15,2013-02-26 23:40:00,
2013-02-26 18:45:00,69.4,63.7,29.75,SW,232,0.0,1.0,82,0.00,,,0.25,Wunderground v.1.15,2013-02-26 23:45:00,
2013-02-26 18:50:00,69.3,63.9,29.75,SW,234,0.0,0.0,83,0.00,,,0.25,Wunderground v.1.15,2013-02-26 23:50:00,
2013-02-26 19:00:00,69.1,64.1,29.75,WSW,253,0.0,0.0,84,0.00,,,0.25,Wunderground v.1.15,2013-02-27 00:00:00,
2013-02-26 19:10:00,68.9,63.9,29.75,SW,235,0.0,15.0,84,0.00,,,0.25,Wunderground v.1.15,2013-02-27 00:10:00,
2013-02-26 19:15:00,68.9,63.9,29.75,SW,236,1.0,15.0,84,0.00,,,0.25,Wunderground v.1.15,2013-02-27 00:15:00,
2013-02-26 19:25:00,68.9,64.2,29.75,WSW,252,0.0,15.0,85,0.00,,,0.25,Wunderground v.1.15,2013-02-27 00:25:00,
2013-02-26 19:30:00,68.9,64.2,29.77,WSW,241,0.0,15.0,85,0.00,,,0.25,Wunderground v.1.15,2013-02-27 00:30:00,
2013-02-26 19:40:00,68.9,64.5,29.77,SW,219,0.0,15.0,86,0.00,,,0.25,Wunderground v.1.15,2013-02-27 00:40:00,
2013-02-26 19:50:00,68.8,64.4,29.77,WSW,243,1.0,1.0,86,0.00,,,0.25,Wunderground v.1.15,2013-02-27 00:50:00,
2013-02-26 19:55:00,68.8,64.4,29.77,WSW,240,1.0,15.0,86,0.00,,,0.25,Wunderground v.1.15,2013-02-27 00:55:00,
2013-02-26 20:05:00,68.8,64.8,29.77,WSW,250,5.0,15.0,87,0.00,,,0.25,Wunderground v.1.15,2013-02-27 01:05:00,
2013-02-26 20:10:00,68.8,64.8,29.77,WSW,242,5.0,5.0,87,0.00,,,0.25,Wunderground v.1.15,2013-02-27 01:10:00,
2013-02-26 20:20:00,68.6,64.9,29.78,WSW,251,2.0,2.0,88,0.00,,,0.25,Wunderground v.1.15,2013-02-27 01:20:00,
2013-02-26 20:25:00,68.4,64.7,29.78,WSW,242,2.0,15.0,88,0.00,,,0.25,Wunderground v.1.15,2013-02-27 01:25:00,
2013-02-26 20:35:00,68.3,64.6,29.78,SW,232,1.0,15.0,88,0.00,,,0.25,Wunderground v.1.15,2013-02-27 01:35:00,
2013-02-26 20:40:00,68.1,64.4,29.78,SW,235,1.0,15.0,88,0.00,,,0.25,Wunderground v.1.15,2013-02-27 01:40:00,
2013-02-26 20:45:00,67.9,64.2,29.78,SSW,211,1.0,15.0,88,0.00,,,0.25,Wunderground v.1.15,2013-02-27 01:45:00,
2013-02-26 20:55:00,67.6,63.9,29.78,West,266,2.0,15.0,88,0.00,,,0.25,Wunderground v.1.15,2013-02-27 01:55:00,
2013-02-26 21:05:00,67.4,63.7,29.78,SW,236,2.0,15.0,88,0.00,,,0.25,Wunderground v.1.15,2013-02-27 02:05:00,
2013-02-26 21:15:00,67.3,63.3,29.79,SW,224,2.0,6.0,87,0.00,,,0.25,Wunderground v.1.15,2013-02-27 02:15:00,
2013-02-26 21:20:00,67.3,63.3,29.79,SSW,212,2.0,2.0,87,0.00,,,0.25,Wunderground v.1.15,2013-02-27 02:20:00,
2013-02-26 21:30:00,67.3,63.3,29.80,SW,231,2.0,2.0,87,0.00,,,0.25,Wunderground v.1.15,2013-02-27 02:30:00,
2013-02-26 21:35:00,67.3,63.3,29.80,SW,233,1.0,2.0,87,0.00,,,0.25,Wunderground v.1.15,2013-02-27 02:35:00,
2013-02-26 21:45:00,67.1,63.4,29.80,SW,235,1.0,2.0,88,0.00,,,0.25,Wunderground v.1.15,2013-02-27 02:45:00,
2013-02-26 21:50:00,66.9,63.2,29.80,SW,236,0.0,0.0,88,0.00,,,0.25,Wunderground v.1.15,2013-02-27 02:50:00,
2013-02-26 22:00:00,66.9,63.2,29.80,SW,233,1.0,2.0,88,0.00,,,0.25,Wunderground v.1.15,2013-02-27 03:00:00,
2013-02-26 22:10:00,66.9,63.2,29.80,WSW,237,2.0,9.0,88,0.00,,,0.25,Wunderground v.1.15,2013-02-27 03:10:00,
2013-02-26 22:15:00,66.9,63.2,29.81,SW,219,2.0,9.0,88,0.00,,,0.25,Wunderground v.1.15,2013-02-27 03:15:00,
2013-02-26 22:25:00,66.8,63.1,29.81,SW,217,1.0,9.0,88,0.00,,,0.25,Wunderground v.1.15,2013-02-27 03:25:00,
2013-02-26 22:35:00,66.6,62.9,29.80,West,263,4.0,9.0,88,0.00,,,0.25,Wunderground v.1.15,2013-02-27 03:35:00,
2013-02-26 22:40:00,66.3,62.6,29.80,West,265,4.0,4.0,88,0.00,,,0.25,Wunderground v.1.15,2013-02-27 03:40:00,
2013-02-26 22:50:00,66.3,63.0,29.81,WSW,250,1.0,1.0,89,0.00,,,0.25,Wunderground v.1.15,2013-02-27 03:50:00,
2013-02-26 22:55:00,66.4,63.1,29.81,West,264,0.0,9.0,89,0.00,,,0.25,Wunderground v.1.15,2013-02-27 03:55:00,
2013-02-26 23:05:00,66.4,63.1,29.82,WNW,284,5.0,11.0,89,0.00,,,0.25,Wunderground v.1.15,2013-02-27 04:05:00,
2013-02-26 23:10:00,66.4,63.1,29.82,WSW,246,6.0,6.0,89,0.00,,,0.25,Wunderground v.1.15,2013-02-27 04:10:00,
2013-02-26 23:20:00,66.9,63.6,29.82,West,265,8.0,14.0,89,0.00,,,0.25,Wunderground v.1.15,2013-02-27 04:20:00,
2013-02-26 23:30:00,67.3,63.3,29.82,West,265,12.0,18.0,87,0.00,,,0.25,Wunderground v.1.15,2013-02-27 04:30:00,
2013-02-26 23:35:00,67.3,63.0,29.82,West,260,12.0,18.0,86,0.00,,,0.25,Wunderground v.1.15,2013-02-27 04:35:00,
2013-02-26 23:45:00,67.6,62.6,29.82,West,260,14.0,21.0,84,0.00,,,0.25,Wunderground v.1.15,2013-02-27 04:45:00,
2013-02-26 23:50:00,67.8,62.8,29.82,West,269,15.0,16.0,84,0.00,,,0.25,Wunderground v.1.15,2013-02-27 04:50:00,